Location: Shepherdstown, WV
(39.4326°N, 77.8042°W)
Time: 22:16:02
(UTC-04:00)

Vanguard 1 Rocket - Pass Details

Date: 12 August 2021
Orbit: 650 x 4226 km, 34.3° (Epoch: 16 September)

Event Time Altitude Azimuth Distance (km) Brightness Sun altitude
Rises 11:02:38 0° 267° (W) 8,464 12.0 51.8°
Reaches altitude 10° 11:08:46 10° 266° (W) 7,318 11.8 52.8°
Maximum altitude 11:32:32 74° 187° (S) 3,035 11.4 56.5°
Drops below altitude 10° 11:45:21 10° 106° (ESE) 4,302 11.4 58.3°
Sets 11:47:57 0° 104° (ESE) 4,957 11.6 58.7°
